OTB-3-GAZELLE

Last updated on Mon Dec 15 2025 00:02:49 GMT+0000 (Coordinated Universal Time)

1 54023U 22127A 25348.22165188 .00000179 00000+0 66913-4 0 9998 2 54023 98.3821 337.8856 0013779 31.2253 328.9753 14.42606522167698
UTC large
Height (km)
Speed (km/s)
/
Latitude / Longitude
Inclination (degrees)
Orbital Period (minutes)
Azimuth
Elevation
Range (km)
Doppler Factor

Next 0 passes for location: London (51.5072 / 0.1276)

Sorry there are no passes over London.